Regional Weather Roundup
Issued by NWS Albany, NY

Home | Current Version | Previous Version | Text Only | Print | Product List | Glossary On
Versions: 1 2 3 4 5 6 7 8 9 10 11 12 13 14 15 16 17 18 19 20 21 22 23 24 25 26 27 28
000
ASUS41 KALY 270310
RWRALY

NEW YORK STATE HOURLY WEATHER ROUNDUP
NATIONAL WEATHER SERVICE ALBANY NY
1100 PM EDT FRI AUG 26 2016

NOTE: "FAIR" INDICATES FEW OR NO CLOUDS BELOW 12,000 FEET WITH NO
SIGNIFICANT WEATHER AND/OR NO OBSTRUCTIONS TO VISIBILITY.

NYZ032-033-038>043-046>054-057>066-NYZ062>081-082-084-270400-
EAST


CITY           SKY/WX    TMP DP  RH WIND       PRES   REMARKS
ALBANY         CLEAR     68  59  73 CALM      30.09R
GLENS FALLS    CLEAR     66  60  81 E3        30.08R
POUGHKEEPSIE   CLEAR     66  64  93 CALM      30.07R
NEWBURGH       CLEAR     70  64  83 NW5       30.11R
MONTGOMERY     CLEAR     73  63  70 CALM      30.09R
WHITE PLAINS   CLEAR     74  66  76 NW6       30.07R
ISLIP          PTCLDY    75  66  73 NW6       30.04R
NEW YORK CITY  PTCLDY    83  65  54 NW9       30.05R
CENTRAL PARK     N/A     81  63  54 MISG        N/A
$$

NYZ005>009-017-018-044>046-055-056-270400-
CENTRAL


CITY           SKY/WX    TMP DP  RH WIND       PRES   REMARKS
FULTON         CLEAR     65  63  93 CALM      30.12R
SYRACUSE       PTCLDY    68  63  84 CALM      30.12R
ROME           CLEAR     66  64  93 CALM      30.14R
ELMIRA         CLEAR     67  62  84 W3        30.15R
BINGHAMTON     CLEAR     70  63  78 N8        30.17R
MONTICELLO     CLEAR     66  63  88 CALM      30.16R
$$

NYZ026>034-041>043-087-270400-
NORTH


CITY           SKY/WX    TMP DP  RH WIND       PRES   REMARKS
WATERTOWN      CLEAR     68  62  81 S6        30.10R
FORT DRUM      NOT AVBL
MASSENA        CLEAR     65  61  87 CALM      30.07S
SARANAC LAKE   PTCLDY    57  55  93 CALM      30.13R
PLATTSBURGH    CLOUDY    67  62  84 CALM      30.06R
$$

NYZ001>004-010>016-019>021-085-270400-
WEST


CITY           SKY/WX    TMP DP  RH WIND       PRES   REMARKS
NIAGARA FALLS  CLOUDY    71  64  78 W5        30.14R
BUFFALO        CLOUDY    74  68  81 W9        30.15R
DUNKIRK        CLEAR     68  63  84 CALM      30.17R
JAMESTOWN      CLEAR     64  55  72 CALM      30.21R
WELLSVILLE     CLEAR     64  57  78 W5        30.23R
ROCHESTER      PTCLDY    71  65  81 W7        30.13R
PENN YAN       CLEAR     68  65  90 SW3       30.16R
$$

             KEY
       WCI = WIND CHILL INDEX
       VSB = VISIBILITY
       HX  = HEAT INDEX
$$




USA.gov is the U.S. government's official web portal to all federal, state and local government web resources and services.